Regional Weather Roundup
Issued by NWS

Home | Current Version | Previous Version | Graphics & Text | Print | Product List | Glossary On
Versions: 1 2 3 4 5 6 7 8 9 10 11 12 13 14 15 16 17 18 19 20 21 22 23 24 25 26 27 28 29 30 31 32 33 34 35 36 37 38 39 40 41 42 43 44 45 46 47 48 49 50
000
ASUS43 KMKX 201520
RWRWI

WISCONSIN REGIONAL WEATHER ROUNDUP
NATIONAL WEATHER SERVICE MILWAUKEE/SULLIVAN WI
1000 AM CDT SUN MAY 20 2018

NOTE: "FAIR" INDICATES FEW OR NO CLOUDS BELOW 12,000 FEET WITH NO
SIGNIFICANT WEATHER AND/OR OBSTRUCTIONS TO VISIBILITY.

WIZ001-002-006>008-014>016-023>028-201600-
NORTHWEST WISCONSIN

CITY           SKY/WX    TMP DP  RH WIND       PRES   REMARKS
SUPERIOR ARPT  FAIR      54  37  52 CALM      30.30S
ASHLAND        FAIR      54  33  45 VRB3      30.30R
HAYWARD        FAIR      56  23  27 E10       30.28R
SIREN          FAIR      56  25  30 E3        30.27S
CUMBERLAND     FAIR      52  28  40 E10       30.27R
RICE LAKE      FAIR      57  24  28 E8        30.28S
CHETEK         FAIR      53  32  45 E8        30.27R
LADYSMITH      FAIR      56  28  33 MISG      30.28S
EAU CLAIRE     FAIR      53  38  56 E8        30.25R
MENOMONIE      FAIR      56  36  46 NE8       30.25S
NEW RICHMOND   FAIR      55  31  39 E10       30.26R
OSCEOLA        FAIR      58  27  31 E10       30.29S
$$

WIZ003>005-009-010-017-018-201600-
NORTH CENTRAL WISCONSIN

CITY           SKY/WX    TMP DP  RH WIND       PRES   REMARKS
MANITOWISH WTR FAIR      54  26  34 E6        30.26R
ARBOR VITAE    FAIR      57  26  30 NE8       30.26R
WOODRUFF       FAIR      57  26  30 NE8       30.26R
RHINELANDER    FAIR      54  28  36 NE9       30.26R
EAGLE RIVER    FAIR      54  22  29 E8        30.25S
LAND O LAKES   FAIR      55  27  33 E6        30.27S
PHILLIPS       FAIR      54  28  36 E6        30.26R
TOMAHAWK       FAIR      53  29  40 E6        30.27R
MEDFORD        FAIR      51  30  44 E10       30.25R
MERRILL        FAIR      53  31  42 E8        30.26S
$$

WIZ029-030-035-036-043>047-201600-
CENTRAL WISCONSIN

CITY           SKY/WX    TMP DP  RH WIND       PRES   REMARKS
WAUSAU         FAIR      51  31  46 E9        30.24R
MOSINEE        PTSUNNY   54  37  54 E8        30.26R
MARSHFIELD     FAIR      54  39  57 E7        30.23R
STEVENS POINT  NOT AVBL
WAUPACA        PTSUNNY   56  41  56 E7        30.25S
WAUTOMA        CLOUDY    49  43  80 E7        30.25R
WISC RAPIDS    FAIR      55  39  54 NE6       30.25R
CAMP DOUGLAS   PTSUNNY   48  45  87 E8        30.23R
$$

WIZ011>013-019>022-031-037>040-048>050-201600-
NORTHEAST WISCONSIN

CITY           SKY/WX    TMP DP  RH WIND       PRES   REMARKS
ANTIGO         FAIR      51  30  44 NE9       30.26R
SHAWANO        FAIR      55  37  50 NE3       30.26R
OCONTO         FAIR      51  36  57 SE7       30.26R
STURGEON BAY   FAIR      43  37  79 N10       30.25R
GREEN BAY      FAIR      51  41  68 NE13G22   30.25R
MANITOWOC      CLOUDY    46  39  76 NE9       30.26R
APPLETON       PTSUNNY   48  36  61 NE6       30.23R
CLINTONVILLE   FAIR      53  36  52 NE6       30.26R
OSHKOSH        CLOUDY    48  42  80 NE10      30.24R
$$

WIZ032>034-041-042-053>061-201600-
SOUTHWEST WISCONSIN

CITY           SKY/WX    TMP DP  RH WIND       PRES   REMARKS
LA CROSSE      CLOUDY    50  47  89 NE7       30.23R
SPARTA         CLOUDY    48  46  92 E8        30.24R
VIROQUA        CLOUDY    47  47  98 E10       30.21R
BOSCOBEL       CLOUDY    52  48  86 NE8       30.20R
PRAIRIE DU CHI DRIZZLE   53  49  86 NE10      30.19R
PLATTEVILLE    CLOUDY    52  52  99 E12       30.19R
$$

WIZ056-057-062-063-064-067-068-201600-
SOUTH CENTRAL WISCONSIN

CITY           SKY/WX    TMP DP  RH WIND       PRES   REMARKS
REEDSBURG      CLOUDY    49  44  83 E7        30.23R
BARABOO/DELLS  CLOUDY    48  43  82 NE10      30.21S
LONE ROCK      CLOUDY    51  48  89 E9        30.21R
MINERAL POINT  CLOUDY    50  50 100 E10       30.20R
MADISON        LGT RAIN  48  46  93 E8        30.21R
MIDDLETON      CLOUDY    50  47  90 NE9       30.22R
WATERTOWN      CLOUDY    47  47  99 E7        30.23R
MONROE         CLOUDY    46  46 100 E10G17    30.19R
JANESVILLE     RAIN      48  48 100 E15       30.20R
$$

WIZ051-052-058>065-066-070>072-201600-
SOUTHEAST WISCONSIN

CITY           SKY/WX    TMP DP  RH WIND       PRES   REMARKS
MILWAUKEE      RAIN      43  40  89 N14G25    30.24R FOG
WAUKESHA       LGT RAIN  43  39  87 NE7       30.24R
MILWAUKEE/TIMM RAIN      43  37  81 NE13      30.26R
RACINE         LGT RAIN  42  41  96 N14G24    30.25R FOG
BURLINGTON     RAIN      43  41  92 NE10      30.22F
KENOSHA        LGT RAIN  43  40  89 NE12      30.23S FOG
FOND DU LAC    CLOUDY    49  43  80 E6        30.24R
SHEBOYGAN      CLOUDY    45  40  82 NE15      30.24R
WEST BEND      CLOUDY    45  41  87 NE9       30.25R
JUNEAU         CLOUDY    47  43  86 E6        30.25R
$$

LSZ147-162-201600-
LAKE SUPERIOR

STATION/POSITION TIME  TEMP    WIND        PRES    WAVE
                       AIR SEA DIR/SP/G            HT/PER
                 (UTC) (F)     (DEG/KT/KT) (MB)    (FT/S)
W MID LAKE BUOY  1450   38 36  250/  6/  6 1026.4R   1/ 6
DEVILS ISLAND    1500   44     280/  2/  6 1026.7R
SAXON HARBOR     1440   43      20/  5/  5 1025.4R
$$

LMZ867-665-643>646-201600-
LAKE MICHIGAN

STATION/POSITION TIME  TEMP    WIND        PRES    WAVE
                       AIR SEA DIR/SP/G            HT/PER
                 (UTC) (F)     (DEG/KT/KT) (MB)    (FT/S)
NORTHPORT PIER   1440   42                 1024.0S
KEWAUNEE LAKESHO 1454   45      40/  8/ 12 1023.5R
SHEBOYGAN LAKESH 1500   42      10/ 18/ 21 1024.6R
PORT WASHINGTON  1430   45      30/ 14/ 21 1024.7R
MILWAUKEE LAKESH 1500   42      20/ 17/ 20   N/A
KENOSHA   LAKESH 1500   42                 1023.7
$$

TC  - TEMPERATURE IN CELSIUS
VSB - VISIBILITY IN STATUTE MILES
WCI - WIND CHILL INDEX
HX  - HEAT INDEX




USA.gov is the U.S. government's official web portal to all federal, state and local government web resources and services.